Flag for U.S.A. Weather past 2 weeks in Petersburg, Indiana, U.S.A.

Now
72 °F

Sunny.


Feels Like: 71 °F
Forecast: 69 / 93 °F
Wind: No wind

Location: Huntingburg Airport

Current Time: Sep 5, 2015 at 9:20:54 AM

Latest Report: Sep 5, 2015 at 8:55 AM


Visibility: 10 mi

Pressure: 30.13 "Hg

Humidity: 83%

Dew point: 66 °F

Location of PetersburgLocation

Historic Weather in Petersburg — Graph

°F

Petersburg temperature yesterday

Maximum temperature yesterday: 93 °F (at 2:55 PM)
Minimum temperature yesterday: 66 °F (at 5:55 AM)
Average temperature yesterday: 79 °F

Past Weeks' High & Low Weather Summary

 TemperatureHumidityPressure
High93 °F (Sep 4, 2:55 PM)94% (Aug 21, 8:15 AM)30.19 "Hg (Aug 21, 8:15 AM)
Low52 °F (Aug 25, 6:15 AM)39% (Aug 24, 2:35 PM)29.90 "Hg (Aug 23, 6:15 PM)
Average72 °F72%30.07 "Hg
* Reported Aug 21 8:15 AM — Sep 5 8:15 AM, Petersburg, Weather by CustomWeather, © 2015

Note: Actual official high and low records may vary slightly from our data, if they occured in-between our weather recording intervals... More about our weather records

Advertising

Petersburg weather history for previous 24 hours

 ConditionsComfort  
Time TempWeatherWind HumidityBarometerVisibility
8:15 AM
Sat, Sep 5
66 °FClear.No wind88%30.11 "Hg7 mi
7:55 AM66 °FClear.No wind88%30.11 "Hg5 mi
7:35 AM66 °FClear.No wind88%30.10 "Hg9 mi
7:15 AM66 °FClear.No wind88%30.10 "Hg9 mi
6:55 AM68 °FClear.No wind83%30.10 "Hg10 mi
6:35 AM68 °FClear.No wind83%30.09 "Hg10 mi
6:15 AM66 °FClear.No wind88%30.09 "Hg10 mi
5:55 AM70 °FClear.No wind78%30.09 "Hg10 mi
5:35 AM72 °FClear.No wind73%30.09 "Hg10 mi
5:15 AM72 °FClear.3 mph73%30.08 "Hg10 mi
4:55 AM72 °FClear.3 mph73%30.07 "Hg10 mi
4:35 AM72 °FClear.6 mph73%30.07 "Hg10 mi
4:15 AM72 °FClear.No wind73%30.07 "Hg10 mi
3:55 AM72 °FClear.7 mph73%30.06 "Hg10 mi
3:35 AM72 °FClear.6 mph78%30.06 "Hg10 mi
3:15 AM72 °FClear.3 mph78%30.06 "Hg10 mi
2:55 AM73 °FClear.7 mph74%30.06 "Hg10 mi
2:35 AM73 °FClear.8 mph74%30.06 "Hg10 mi
2:15 AM73 °FClear.8 mph74%30.05 "Hg10 mi
1:55 AM73 °FClear.9 mph74%30.06 "Hg10 mi
1:35 AM73 °FClear.9 mph78%30.07 "Hg10 mi
1:15 AM73 °FClear.6 mph78%30.07 "Hg10 mi
12:55 AM73 °FClear.7 mph78%30.07 "Hg10 mi
12:35 AM75 °FClear.5 mph74%30.08 "Hg10 mi
12:15 AM75 °FClear.6 mph74%30.08 "Hg10 mi
11:55 PM
Fri, Sep 4
73 °FClear.No wind78%30.07 "Hg6 mi
11:35 PM73 °FClear.No wind78%30.07 "Hg8 mi
10:55 PM75 °FClear.No wind74%30.07 "Hg10 mi
10:35 PM75 °FClear.No wind74%30.07 "Hg8 mi
10:15 PM75 °FClear.No wind74%30.06 "Hg7 mi
9:55 PM75 °FClear.5 mph74%30.05 "Hg10 mi
9:35 PM79 °FClear.No wind65%30.04 "Hg10 mi
9:15 PM79 °FClear.No wind70%30.03 "Hg10 mi
8:55 PM81 °FSunny.No wind62%30.02 "Hg10 mi
8:35 PM81 °FSunny.No wind62%30.02 "Hg10 mi
8:15 PM84 °FSunny.No wind58%30.02 "Hg10 mi
7:55 PM86 °FSunny.No wind52%30.01 "Hg10 mi
7:35 PM88 °FSunny.3 mph49%30.00 "Hg10 mi
7:15 PM90 °FSunny.5 mph43%30.00 "Hg10 mi
6:55 PM91 °FSunny.5 mph41%30.01 "Hg10 mi
6:35 PM91 °FSunny.3 mph41%30.01 "Hg10 mi
6:15 PM91 °FSunny.7 mph41%30.01 "Hg10 mi
5:35 PM93 °FBroken clouds.6 mph39%30.00 "Hg10 mi
5:15 PM91 °FPartly sunny.5 mph41%30.00 "Hg10 mi
4:55 PM93 °FBroken clouds.6 mph39%30.00 "Hg10 mi
4:35 PM93 °FScattered clouds.9 mph41%30.00 "Hg10 mi
4:15 PM93 °FScattered clouds.5 mph41%30.01 "Hg10 mi
3:55 PM93 °FScattered clouds.No wind41%30.02 "Hg10 mi
3:35 PM93 °FSunny.5 mph44%30.02 "Hg10 mi
3:15 PM93 °FPassing clouds.3 mph41%30.03 "Hg10 mi
2:55 PM93 °FPassing clouds.7 mph41%30.03 "Hg10 mi
2:35 PM91 °FSunny.7 mph44%30.04 "Hg10 mi
2:15 PM91 °FPassing clouds.7 mph46%30.04 "Hg10 mi
1:55 PM91 °FBroken clouds.6 mph44%30.04 "Hg10 mi
1:35 PM90 °FBroken clouds.7 mph46%30.05 "Hg10 mi
1:15 PM90 °FScattered clouds.5 mph46%30.05 "Hg10 mi
12:55 PM90 °FPassing clouds.5 mph52%30.05 "Hg10 mi
12:35 PM90 °FBroken clouds.3 mph55%30.05 "Hg10 mi
12:15 PM90 °FPassing clouds.3 mph52%30.06 "Hg10 mi
11:55 AM88 °FSunny.3 mph55%30.06 "Hg10 mi
11:35 AM88 °FSunny.No wind59%30.06 "Hg10 mi
11:15 AM86 °FSunny.No wind62%30.05 "Hg10 mi
10:55 AM84 °FSunny.No wind66%30.05 "Hg10 mi
10:35 AM82 °FSunny.No wind70%30.05 "Hg9 mi
10:15 AM82 °FSunny.No wind70%30.05 "Hg9 mi
9:55 AM79 °FSunny.No wind74%30.05 "Hg8 mi
9:35 AM77 °FSunny.No wind79%30.05 "Hg6 mi
9:15 AM73 °FSunny.No wind89%30.05 "Hg5 mi
Weather by CustomWeather, © 2015

See weather overviewHow to use our weather pages